COSMOS 2270

导读

COSMOS 2270是独联体(CIS)于1994年2月12日发射的“宇宙”系列卫星,延续了苏联冷战时期空间侦察的研发脉络。作为该系列军用侦察卫星的后期型号,它大概率承担电子侦察或光学监视任务,运行于近地轨道,为独联体战略情报收集提供空间支撑,是后苏联时代航天军事遗产延续的典型代表,体现了独联体在航天侦察领域的延续性能力。

Basic Information
目录编号:
23001
目录名称:
COSMOS 2270
国际标识:
1994-011C
轨道中心:
EARTH
卫星名称:
COSMOS 2270
卫星全名:
--
卫星状态:
在轨 (已飞行11902 天)
发射日期:
1994-02-12 UTC
国别 :
俄罗斯(独联体) (CIS)
星等 :
--
This satellite is enrolled in the Space Conjunction Data Service (SCDS) and the current flight risk assessment level is: No High Risk
Orbit Information
数据来源 国际轨道数据 AOE轨道数据
星历时间 2026-09-14T07:32:31+0800
6小时前
查看轨道信息
2026-09-10T07:00:00+0800
4天前
查看轨道信息
半长轴 7788.982km 7788.979km
偏心率 0.0007015 0.0007223
轨道倾角 82.568° 82.568°
近地点辐角 347.858° 356.644°
升交点赤经 257.051° 259.625°
平近点角 39.136° 110.484°
近地点 1405.381km 1405.216km
远地点 1416.309km 1416.468km
周期 114.020分钟 114.020分钟
每日圈数 12.629373 12.629379
Detailed Information
使用方式:
暂无
2D Orbit Map
3D Orbit Map
Orbit Altitude Analysis Chart
Orbit Inclination Analysis Chart
Orbit Comprehensive Analysis Chart
View Comprehensive Chart
Conjunction Data List
Event ID Objects TCA Miss Dist (km) Collision Risk Probability Collision Risk Index (CRI) Action
CDM_260910-004502-300108-440625
2026-09-10T
00:45:25+0000
2.743 km
极远距离
1.441979E-6 低风险 0.38
Miss Distance Evolution Trend with All Objects Subscribe to Flight Safety Assessment
Collision Probability Evolution Trend with All Objects Subscribe to Flight Safety Assessment